COSMOS 2500 (755)

Last updated on July 6, 2021, 3:40 p.m. UTC

1 40001U 14032A   21186.48052225 -.00000051  00000-0  00000-0 0  9998
2 40001  65.7705  14.6459 0005474 181.2982 193.3464  2.13102461 54938
UTC
Height (km)
Latitude
Longitude
Inclination
Orbital Period
UTC large
Height (km)
Speed (km/s)
/
Latitude / Longitude
Inclination (degrees)
Orbital Period (minutes)
Azimuth
Elevation
Range (km)
Doppler Factor
iOS Compass Heading
iOS Angle